| time (UTC) | temp C | wind direction | speed KPH | gust KPH | rain 1hr cm | rain 24hr cm | rain mn cm | humidity % | barometer mb |
| 20260503180133 | 13 | 254 | 0.0 | 0.0 | 0.00 | 0.03 | 0.03 | 77 | 1013.0 |
| 20260503175638 | 13 | 153 | 0.0 | 0.0 | 0.00 | 0.03 | 0.03 | 79 | 1013.0 |
| 20260503175633 | 13 | 234 | 0.0 | 0.0 | 0.00 | 0.03 | 0.03 | 79 | 1013.1 |
| 20260503175237 | 12 | 117 | 0.0 | 0.0 | 0.00 | 0.03 | 0.03 | 81 | 1013.0 |
| 20260503174133 | 12 | 284 | 0.0 | 0.0 | 0.00 | 0.03 | 0.03 | 81 | 1013.1 |
| 20260503173631 | 12 | 290 | 0.0 | 0.0 | 0.00 | 0.03 | 0.03 | 81 | 1013.1 |
| 20260503173131 | 12 | 232 | 0.0 | 0.0 | 0.00 | 0.03 | 0.03 | 81 | 1013.0 |
| 20260503172631 | 12 | 263 | 0.0 | 0.0 | 0.00 | 0.03 | 0.03 | 85 | 1013.0 |
| 20260503172131 | 12 | 263 | 0.0 | 0.0 | 0.00 | 0.03 | 0.03 | 83 | 1013.0 |
| 20260503171631 | 12 | 242 | 0.0 | 0.0 | 0.00 | 0.03 | 0.03 | 86 | 1013.0 |
| 20260503171131 | 12 | 263 | 0.0 | 0.0 | 0.00 | 0.03 | 0.03 | 87 | 1013.1 |
| 20260503170630 | 12 | 205 | 0.0 | 0.0 | 0.00 | 0.03 | 0.03 | 89 | 1013.0 |
| 20260503170131 | 12 | 240 | 0.0 | 0.0 | 0.00 | 0.03 | 0.03 | 90 | 1013.0 |
| 20260503160132 | 11 | 269 | 0.0 | 0.0 | 0.03 | 0.03 | 0.03 | 98 | 1012.9 |
| 20260503150625 | 10 | 139 | 0.0 | 0.0 | 0.00 | 0.03 | 0.00 | 97 | 1012.3 |
| 20260503150125 | 10 | 139 | 0.0 | 0.0 | 0.00 | 0.03 | 0.00 | 97 | 1012.2 |
| 20260503131119 | 10 | 261 | 0.0 | 0.0 | 0.00 | 0.03 | 0.00 | 97 | 1011.0 |
| 20260503130623 | 10 | 261 | 0.0 | 0.0 | 0.00 | 0.03 | 0.00 | 97 | 1010.8 |
| 20260503130617 | 10 | 261 | 0.0 | 0.0 | 0.00 | 0.03 | 0.00 | 97 | 1011.0 |
| 20260503130117 | 10 | 261 | 0.0 | 0.0 | 0.00 | 0.03 | 0.00 | 97 | 1011.0 |
| 20260503120114 | 10 | 261 | 0.0 | 0.0 | 0.00 | 0.03 | 0.00 | 97 | 1010.7 |
| 20260503110610 | 10 | 261 | 0.0 | 0.0 | 0.00 | 0.03 | 0.00 | 95 | 1010.9 |
| 20260503110108 | 10 | 261 | 0.0 | 0.0 | 0.00 | 0.03 | 0.00 | 94 | 1010.9 |
| 20260503100104 | 10 | 261 | 0.0 | 0.0 | 0.00 | 0.05 | 0.00 | 94 | 1010.7 |
| 20260503081602 | 11 | 265 | 0.0 | 0.0 | 0.00 | 0.05 | 0.00 | 91 | 1011.4 |
| 20260503081102 | 11 | 265 | 0.0 | 0.0 | 0.00 | 0.05 | 0.00 | 91 | 1011.5 |
| 20260503080602 | 11 | 265 | 0.0 | 0.0 | 0.00 | 0.05 | 0.00 | 91 | 1011.4 |
| 20260503072600 | 11 | 265 | 0.0 | 0.0 | 0.00 | 0.05 | 0.00 | 91 | 1011.4 |
| 20260503072059 | 11 | 265 | 0.0 | 0.0 | 0.00 | 0.05 | 0.00 | 90 | 1011.4 |
| 20260503071600 | 11 | 265 | 0.0 | 0.0 | 0.00 | 0.05 | 0.00 | 90 | 1011.4 |
| 20260503071059 | 11 | 265 | 0.0 | 0.0 | 0.00 | 0.05 | 0.00 | 90 | 1011.5 |
| 20260503070558 | 11 | 265 | 0.0 | 0.0 | 0.00 | 0.05 | 0.00 | 90 | 1011.5 |
| 20260503055056 | 11 | 265 | 0.0 | 0.0 | 0.00 | 0.05 | 0.05 | 90 | 1011.5 |
| 20260503054554 | 11 | 265 | 0.0 | 0.0 | 0.00 | 0.05 | 0.05 | 89 | 1011.5 |
| 20260503054055 | 11 | 265 | 0.0 | 0.0 | 0.00 | 0.05 | 0.05 | 89 | 1011.6 |
| 20260503053554 | 11 | 265 | 0.0 | 0.0 | 0.00 | 0.05 | 0.05 | 89 | 1011.6 |
| 20260503053059 | 11 | 265 | 0.0 | 0.0 | 0.00 | 0.05 | 0.05 | 89 | 1011.6 |
| 20260503053054 | 11 | 265 | 0.0 | 0.0 | 0.00 | 0.05 | 0.05 | 89 | 1011.7 |
| 20260503052659 | 11 | 265 | 0.0 | 0.0 | 0.00 | 0.05 | 0.05 | 89 | 1011.7 |
| 20260503052054 | 11 | 265 | 0.0 | 0.0 | 0.00 | 0.05 | 0.05 | 89 | 1011.7 |
| 20260503051056 | 11 | 265 | 0.0 | 0.0 | 0.00 | 0.05 | 0.05 | 89 | 1011.7 |
| 20260503050554 | 11 | 265 | 0.0 | 0.0 | 0.00 | 0.05 | 0.05 | 89 | 1011.8 |
| 20260503050052 | 11 | 265 | 0.0 | 0.0 | 0.00 | 0.05 | 0.05 | 89 | 1011.8 |
| 20260503045552 | 11 | 265 | 0.0 | 0.0 | 0.00 | 0.05 | 0.05 | 88 | 1011.7 |
| 20260503045053 | 11 | 265 | 0.0 | 0.0 | 0.00 | 0.05 | 0.05 | 88 | 1011.7 |
| 20260503044550 | 11 | 276 | 0.0 | 0.0 | 0.00 | 0.05 | 0.05 | 88 | 1011.6 |
| 20260503044050 | 12 | 276 | 0.0 | 0.0 | 0.00 | 0.05 | 0.05 | 88 | 1011.5 |
| 20260503043550 | 12 | 276 | 0.0 | 0.0 | 0.00 | 0.05 | 0.05 | 88 | 1011.5 |
| 20260503043051 | 12 | 274 | 0.0 | 0.0 | 0.00 | 0.05 | 0.05 | 89 | 1011.5 |
| 20260503042550 | 12 | 274 | 0.0 | 0.0 | 0.00 | 0.05 | 0.05 | 88 | 1011.5 |
| 20260503042049 | 12 | 274 | 0.0 | 0.0 | 0.00 | 0.05 | 0.05 | 88 | 1011.4 |
| 20260503041549 | 12 | 274 | 0.0 | 0.0 | 0.00 | 0.05 | 0.05 | 88 | 1011.4 |
| 20260503041048 | 12 | 274 | 0.0 | 0.0 | 0.00 | 0.05 | 0.05 | 89 | 1011.3 |
| 20260503040548 | 12 | 274 | 0.0 | 0.0 | 0.00 | 0.05 | 0.05 | 89 | 1011.2 |
| 20260503040053 | 12 | 319 | 0.0 | 0.0 | 0.00 | 0.05 | 0.05 | 89 | 1011.1 |
| 20260503040048 | 12 | 275 | 0.0 | 0.0 | 0.00 | 0.05 | 0.05 | 89 | 1011.2 |
| 20260503035048 | 12 | 319 | 0.0 | 0.0 | 0.00 | 0.05 | 0.05 | 89 | 1011.0 |
| 20260503034548 | 12 | 319 | 0.0 | 0.0 | 0.00 | 0.05 | 0.05 | 89 | 1010.9 |
| 20260503034049 | 12 | 319 | 0.0 | 0.0 | 0.00 | 0.05 | 0.05 | 88 | 1010.9 |
| 20260503033552 | 12 | 319 | 0.0 | 0.0 | 0.00 | 0.05 | 0.05 | 88 | 1010.7 |
| 20260503033548 | 12 | 319 | 0.0 | 0.0 | 0.00 | 0.05 | 0.05 | 88 | 1010.9 |
| 20260503033150 | 12 | 320 | 0.0 | 0.0 | 0.00 | 0.05 | 0.05 | 88 | 1010.7 |
| 20260503032051 | 12 | 319 | 0.0 | 0.0 | 0.00 | 0.05 | 0.05 | 87 | 1010.7 |
| 20260503032047 | 12 | 319 | 0.0 | 0.0 | 0.00 | 0.05 | 0.05 | 87 | 1010.6 |
| 20260503031046 | 13 | 319 | 0.0 | 0.0 | 0.00 | 0.05 | 0.05 | 88 | 1010.6 |
| 20260503030546 | 13 | 320 | 0.0 | 0.0 | 0.00 | 0.05 | 0.05 | 87 | 1010.6 |
| 20260503030046 | 13 | 320 | 0.0 | 0.0 | 0.00 | 0.05 | 0.05 | 86 | 1010.6 |
| 20260503025546 | 13 | 320 | 0.0 | 0.0 | 0.00 | 0.05 | 0.05 | 87 | 1010.6 |
| 20260503025047 | 13 | 320 | 0.0 | 0.0 | 0.00 | 0.05 | 0.05 | 86 | 1010.6 |
| 20260503024551 | 13 | 320 | 0.0 | 0.0 | 0.00 | 0.05 | 0.05 | 86 | 1010.5 |
| 20260503024046 | 13 | 320 | 0.0 | 0.0 | 0.00 | 0.05 | 0.05 | 86 | 1010.5 |
| 20260503023546 | 13 | 320 | 0.0 | 0.0 | 0.00 | 0.05 | 0.05 | 86 | 1010.4 |
| 20260503023051 | 13 | 305 | 0.0 | 0.0 | 0.00 | 0.05 | 0.05 | 84 | 1010.4 |
| 20260503023046 | 13 | 320 | 0.0 | 0.0 | 0.00 | 0.05 | 0.05 | 85 | 1010.4 |
| 20260503022546 | 13 | 320 | 0.0 | 0.0 | 0.00 | 0.05 | 0.05 | 85 | 1010.4 |
| 20260503022150 | 14 | 302 | 0.0 | 0.0 | 0.00 | 0.05 | 0.05 | 83 | 1010.3 |
| 20260503021546 | 14 | 305 | 0.0 | 0.0 | 0.00 | 0.05 | 0.05 | 84 | 1010.3 |
| 20260503020546 | 14 | 302 | 0.0 | 0.0 | 0.00 | 0.05 | 0.05 | 83 | 1010.3 |
| 20260503020047 | 15 | 293 | 0.0 | 0.0 | 0.00 | 0.05 | 0.05 | 82 | 1010.4 |
| 20260503015552 | 15 | 322 | 0.0 | 0.0 | 0.00 | 0.05 | 0.05 | 81 | 1010.4 |
| 20260503015547 | 15 | 293 | 0.0 | 0.0 | 0.00 | 0.05 | 0.05 | 81 | 1010.3 |
| 20260503015047 | 15 | 293 | 0.0 | 0.0 | 0.00 | 0.05 | 0.05 | 81 | 1010.4 |
| 20260503014046 | 15 | 322 | 0.0 | 0.0 | 0.00 | 0.05 | 0.05 | 81 | 1010.4 |
| 20260503013546 | 15 | 322 | 0.0 | 0.0 | 0.00 | 0.05 | 0.05 | 81 | 1010.4 |
| 20260503013045 | 15 | 322 | 0.0 | 0.0 | 0.00 | 0.05 | 0.05 | 79 | 1010.4 |
| 20260503012551 | 15 | 323 | 0.0 | 0.0 | 0.00 | 0.05 | 0.05 | 79 | 1010.5 |
| 20260503012046 | 16 | 319 | 0.0 | 0.0 | 0.00 | 0.05 | 0.05 | 79 | 1010.4 |
| 20260503011546 | 16 | 132 | 0.0 | 0.0 | 0.00 | 0.05 | 0.05 | 78 | 1010.5 |
| 20260503011050 | 16 | 142 | 0.0 | 0.0 | 0.00 | 0.05 | 0.05 | 79 | 1010.4 |
| 20260503011046 | 16 | 132 | 0.0 | 0.0 | 0.00 | 0.05 | 0.05 | 78 | 1010.4 |
| 20260503010042 | 16 | 142 | 0.0 | 1.6 | 0.00 | 0.05 | 0.05 | 77 | 1010.4 |
| 20260503005542 | 16 | 73 | 0.0 | 4.8 | 0.00 | 0.05 | 0.05 | 77 | 1010.4 |
| 20260503005042 | 16 | 73 | 0.0 | 4.8 | 0.00 | 0.05 | 0.05 | 77 | 1010.4 |
| 20260503004646 | 17 | 196 | 0.0 | 0.0 | 0.00 | 0.05 | 0.05 | 76 | 1010.4 |
| 20260503004546 | 16 | 253 | 1.6 | 8.0 | 0.00 | 0.05 | 0.05 | 76 | 1010.4 |
| 20260503004542 | 16 | 80 | 1.6 | 8.0 | 0.00 | 0.05 | 0.05 | 76 | 1010.4 |
| 20260503003541 | 17 | 113 | 0.0 | 0.0 | 0.00 | 0.05 | 0.05 | 76 | 1010.4 |
| 20260503002542 | 17 | 230 | 0.0 | 0.0 | 0.00 | 0.05 | 0.05 | 76 | 1010.4 |
| 20260503002042 | 17 | 208 | 0.0 | 0.0 | 0.00 | 0.05 | 0.05 | 75 | 1010.4 |
| 20260503001542 | 17 | 225 | 0.0 | 0.0 | 0.00 | 0.05 | 0.05 | 75 | 1010.4 |
| 20260503001042 | 17 | 208 | 0.0 | 0.0 | 0.00 | 0.05 | 0.05 | 75 | 1010.5 |
| 20260503000543 | 17 | 76 | 0.0 | 0.0 | 0.00 | 0.05 | 0.05 | 74 | 1010.5 |
| 20260503000043 | 17 | 98 | 0.0 | 0.0 | 0.00 | 0.05 | 0.05 | 74 | 1010.5 |
| 20260502235541 | 18 | 171 | 0.0 | 0.0 | 0.00 | 0.05 | 0.05 | 75 | 1010.6 |
| 20260502235046 | 17 | 107 | 0.0 | 0.0 | 0.00 | 0.05 | 0.05 | 74 | 1010.7 |
| 20260502235042 | 17 | 238 | 0.0 | 0.0 | 0.00 | 0.05 | 0.05 | 75 | 1010.6 |
| 20260502234042 | 17 | 236 | 0.0 | 0.0 | 0.00 | 0.05 | 0.05 | 76 | 1010.6 |
| 20260502233539 | 17 | 34 | 0.0 | 0.0 | 0.00 | 0.05 | 0.05 | 76 | 1010.7 |
| 20260502233040 | 17 | 37 | 0.0 | 0.0 | 0.00 | 0.05 | 0.05 | 75 | 1010.7 |
| 20260502232539 | 17 | 121 | 0.0 | 0.0 | 0.00 | 0.05 | 0.05 | 76 | 1010.8 |
| 20260502232044 | 17 | 63 | 0.0 | 0.0 | 0.00 | 0.05 | 0.05 | 75 | 1010.9 |
| 20260502232039 | 17 | 204 | 0.0 | 0.0 | 0.00 | 0.05 | 0.05 | 76 | 1010.8 |
| 20260502231043 | 17 | 144 | 0.0 | 0.0 | 0.00 | 0.05 | 0.05 | 77 | 1011.1 |
| 20260502231038 | 17 | 95 | 0.0 | 0.0 | 0.00 | 0.05 | 0.05 | 76 | 1011.0 |
| 20260502230038 | 17 | 221 | 0.0 | 0.0 | 0.00 | 0.05 | 0.05 | 76 | 1011.2 |
| 20260502225538 | 17 | 18 | 0.0 | 0.0 | 0.00 | 0.05 | 0.05 | 77 | 1011.3 |
| 20260502225038 | 17 | 79 | 0.0 | 0.0 | 0.00 | 0.05 | 0.05 | 77 | 1011.5 |
| 20260502224538 | 17 | 120 | 0.0 | 0.0 | 0.00 | 0.05 | 0.05 | 76 | 1011.5 |
| 20260502224043 | 17 | 211 | 1.6 | 11.3 | 0.00 | 0.05 | 0.05 | 78 | 1011.6 |
| 20260502224038 | 17 | 91 | 0.0 | 4.8 | 0.00 | 0.05 | 0.05 | 77 | 1011.6 |
| 20260502223643 | 17 | 46 | 1.6 | 11.3 | 0.00 | 0.05 | 0.05 | 76 | 1011.7 |
| 20260502222543 | 17 | 53 | 0.0 | 8.0 | 0.00 | 0.05 | 0.05 | 79 | 1012.1 |
| 20260502222537 | 17 | 229 | 1.6 | 6.4 | 0.00 | 0.05 | 0.05 | 76 | 1011.7 |
| 20260502222036 | 17 | 164 | 1.6 | 9.7 | 0.00 | 0.05 | 0.05 | 78 | 1011.8 |
| 20260502221537 | 17 | 54 | 1.6 | 9.7 | 0.00 | 0.05 | 0.05 | 77 | 1012.0 |
| 20260502220540 | 16 | 117 | 3.2 | 9.7 | 0.00 | 0.05 | 0.05 | 80 | 1012.3 |
| 20260502220536 | 16 | 136 | 1.6 | 9.7 | 0.00 | 0.05 | 0.05 | 78 | 1012.3 |
| 20260502215536 | 16 | 236 | 3.2 | 9.7 | 0.00 | 0.05 | 0.05 | 77 | 1012.4 |
| 20260502215036 | 16 | 263 | 3.2 | 8.0 | 0.00 | 0.05 | 0.05 | 79 | 1012.5 |
| 20260502214540 | 16 | 288 | 3.2 | 12.9 | 0.00 | 0.05 | 0.05 | 79 | 1012.6 |
| 20260502214536 | 16 | 176 | 1.6 | 8.0 | 0.00 | 0.05 | 0.05 | 80 | 1012.5 |
| 20260502213535 | 16 | 183 | 3.2 | 12.9 | 0.00 | 0.05 | 0.05 | 80 | 1012.8 |
| 20260502213035 | 16 | 232 | 1.6 | 6.4 | 0.00 | 0.05 | 0.05 | 81 | 1012.6 |
| 20260502212534 | 16 | 246 | 0.0 | 0.0 | 0.00 | 0.05 | 0.05 | 84 | 1012.8 |
| 20260502212034 | 15 | 39 | 0.0 | 0.0 | 0.00 | 0.05 | 0.05 | 84 | 1012.6 |
| 20260502211534 | 15 | 62 | 0.0 | 0.0 | 0.00 | 0.05 | 0.05 | 86 | 1012.6 |
| 20260502211034 | 14 | 87 | 0.0 | 0.0 | 0.00 | 0.05 | 0.05 | 87 | 1012.9 |
| 20260502210538 | 14 | 219 | 0.0 | 0.0 | 0.00 | 0.05 | 0.05 | 85 | 1013.0 |
| 20260502210534 | 14 | 147 | 0.0 | 0.0 | 0.00 | 0.05 | 0.05 | 85 | 1012.9 |
| 20260502210138 | 14 | 57 | 0.0 | 0.0 | 0.00 | 0.05 | 0.05 | 86 | 1013.1 |
| 20260502205034 | 14 | 57 | 0.0 | 0.0 | 0.00 | 0.05 | 0.05 | 87 | 1013.2 |
| 20260502204534 | 14 | 56 | 0.0 | 0.0 | 0.00 | 0.05 | 0.05 | 85 | 1013.2 |
| 20260502204032 | 14 | 54 | 0.0 | 0.0 | 0.00 | 0.05 | 0.05 | 86 | 1013.3 |
| 20260502203532 | 14 | 103 | 0.0 | 0.0 | 0.00 | 0.05 | 0.05 | 88 | 1013.5 |
| 20260502203031 | 14 | 168 | 0.0 | 0.0 | 0.00 | 0.05 | 0.05 | 88 | 1013.4 |
| 20260502202531 | 13 | 157 | 0.0 | 0.0 | 0.00 | 0.05 | 0.05 | 87 | 1013.5 |
| 20260502202032 | 13 | 197 | 0.0 | 0.0 | 0.00 | 0.05 | 0.05 | 89 | 1013.6 |
| 20260502201537 | 13 | 49 | 0.0 | 0.0 | 0.00 | 0.05 | 0.05 | 90 | 1013.8 |
| 20260502201532 | 13 | 64 | 0.0 | 0.0 | 0.00 | 0.05 | 0.05 | 90 | 1013.7 |
| 20260502201032 | 13 | 64 | 0.0 | 0.0 | 0.00 | 0.05 | 0.05 | 88 | 1013.7 |
| 20260502200029 | 13 | 132 | 0.0 | 0.0 | 0.00 | 0.05 | 0.05 | 93 | 1013.9 |
| 20260502195530 | 12 | 131 | 0.0 | 0.0 | 0.00 | 0.05 | 0.05 | 94 | 1014.0 |
| 20260502195028 | 12 | 136 | 0.0 | 0.0 | 0.00 | 0.05 | 0.05 | 93 | 1014.1 |
| 20260502194528 | 12 | 134 | 0.0 | 0.0 | 0.00 | 0.05 | 0.05 | 93 | 1014.0 |
| 20260502194028 | 12 | 132 | 0.0 | 1.6 | 0.00 | 0.05 | 0.05 | 94 | 1014.1 |
| 20260502193527 | 12 | 132 | 0.0 | 1.6 | 0.00 | 0.05 | 0.05 | 94 | 1014.1 |
| 20260502193031 | 12 | 144 | 0.0 | 0.0 | 0.00 | 0.05 | 0.05 | 94 | 1014.1 |
| 20260502193026 | 12 | 105 | 0.0 | 0.0 | 0.00 | 0.05 | 0.05 | 94 | 1014.2 |
| 20260502192026 | 12 | 105 | 0.0 | 0.0 | 0.00 | 0.05 | 0.05 | 94 | 1014.2 |
| 20260502191526 | 12 | 102 | 0.0 | 0.0 | 0.00 | 0.05 | 0.05 | 94 | 1014.3 |
| 20260502191025 | 12 | 102 | 0.0 | 0.0 | 0.00 | 0.05 | 0.05 | 96 | 1014.2 |
| 20260502190525 | 12 | 102 | 0.0 | 3.2 | 0.00 | 0.05 | 0.05 | 95 | 1014.2 |
| 20260502190026 | 12 | 102 | 0.0 | 4.8 | 0.00 | 0.05 | 0.05 | 95 | 1014.2 |
| 20260502185526 | 12 | 101 | 0.0 | 4.8 | 0.00 | 0.05 | 0.05 | 95 | 1014.2 |
| 20260502185025 | 12 | 216 | 0.0 | 0.0 | 0.00 | 0.05 | 0.05 | 96 | 1014.2 |
| 20260502184526 | 12 | 216 | 0.0 | 0.0 | 0.00 | 0.05 | 0.05 | 96 | 1014.2 |
| 20260502184030 | 12 | 216 | 0.0 | 0.0 | 0.00 | 0.05 | 0.05 | 96 | 1014.1 |
| 20260502184025 | 12 | 216 | 0.0 | 0.0 | 0.00 | 0.05 | 0.05 | 97 | 1014.2 |
| 20260502183630 | 12 | 216 | 0.0 | 0.0 | 0.00 | 0.05 | 0.05 | 96 | 1014.1 |
| 20260502182525 | 11 | 216 | 0.0 | 0.0 | 0.00 | 0.05 | 0.05 | 95 | 1014.2 |
| 20260502182026 | 11 | 216 | 0.0 | 0.0 | 0.00 | 0.05 | 0.05 | 97 | 1014.2 |
| 20260502181524 | 11 | 216 | 0.0 | 0.0 | 0.00 | 0.05 | 0.05 | 97 | 1014.2 |
| 20260502181023 | 11 | 216 | 0.0 | 0.0 | 0.00 | 0.05 | 0.05 | 98 | 1014.2 |
| 20260502180524 | 11 | 217 | 0.0 | 0.0 | 0.00 | 0.05 | 0.05 | 99 | 1014.1 |